Location: *
(23.5860°S, 65.4036°W)
Time: 10:00:58
(UTC+00:00)

Cosmos 2369 Rocket - Pass Details

Date: 25 August 2019
Orbit: 828 x 853 km, 71.0° (Epoch: 17 September)

Event Time Altitude Azimuth Distance (km) Brightness Sun altitude
Rises 22:55:12 0° 5° (N) 3,358 5.3 -11.4°
Reaches altitude 10° 22:57:51 10° 15° (NNE) 2,430 4.5 -12.0°
Maximum altitude 23:02:45 33° 77° (ENE) 1,379 2.8 -13.1°
Drops below altitude 10° 23:07:42 10° 139° (SE) 2,448 4.2 -14.2°
Enters shadow 23:07:42 10° 139° (SE) 2,449 4.2 -14.2°
